Previsão horária em Cegielnia

Hoje, 2 Agosto, Segunda-feira

Tempo Temperatura Precipitação Vento Pressão Humidade
00:00 +16°C° 0.1 mm 1 m/s 745 mmHg 94%
01:00 +16°C° 0.1 mm 1 m/s 744 mmHg 94%
02:00 +15°C° 0.1 mm 1 m/s 744 mmHg 94%
03:00 +15°C° 0.1 mm 2 m/s 744 mmHg 94%
04:00 +15°C° 0.1 mm 2 m/s 743 mmHg 95%
05:00 +15°C° 0 mm 2 m/s 743 mmHg 94%
06:00 +14°C° 0 mm 3 m/s 744 mmHg 93%
07:00 +16°C° 0 mm 3 m/s 744 mmHg 92%
08:00 +17°C° 0.1 mm 3 m/s 744 mmHg 88%
09:00 +18°C° 0.1 mm 4 m/s 744 mmHg 84%
10:00 +19°C° 0.1 mm 4 m/s 744 mmHg 80%
11:00 +19°C° 0.9 mm 5 m/s 745 mmHg 78%
12:00 +20°C° 0.9 mm 5 m/s 745 mmHg 76%
13:00 +20°C° 0.9 mm 6 m/s 745 mmHg 74%
14:00 +20°C° 0.4 mm 5 m/s 745 mmHg 70%
15:00 +21°C° 0.4 mm 5 m/s 746 mmHg 66%
16:00 +21°C° 0.4 mm 4 m/s 746 mmHg 61%
17:00 +19°C° 0.1 mm 4 m/s 746 mmHg 66%
18:00 +18°C° 0.1 mm 3 m/s 746 mmHg 70%
19:00 +17°C° 0.1 mm 2 m/s 746 mmHg 74%
20:00 +16°C° 0 mm 2 m/s 747 mmHg 74%
21:00 +16°C° 0 mm 3 m/s 747 mmHg 73%
22:00 +14°C° 0 mm 3 m/s 747 mmHg 73%
23:00 +13°C° 0 mm 4 m/s 747 mmHg 74%

Amanhã, 3 Agosto, Terça-feira

Tempo Temperatura Precipitação Vento Pressão Humidade
00:00 +13°C° 0 mm 4 m/s 747 mmHg 76%
01:00 +13°C° 0 mm 4 m/s 747 mmHg 77%
02:00 +12°C° 0 mm 4 m/s 748 mmHg 80%
03:00 +12°C° 0 mm 4 m/s 748 mmHg 83%
04:00 +12°C° 0 mm 4 m/s 748 mmHg 86%
05:00 +13°C° 0 mm 4 m/s 748 mmHg 83%
06:00 +14°C° 0 mm 5 m/s 749 mmHg 79%
07:00 +16°C° 0 mm 5 m/s 749 mmHg 75%
08:00 +17°C° 0.1 mm 5 m/s 749 mmHg 70%
09:00 +20°C° 0.1 mm 5 m/s 749 mmHg 64%
10:00 +21°C° 0.1 mm 5 m/s 750 mmHg 58%
11:00 +21°C° 0.4 mm 5 m/s 750 mmHg 61%
12:00 +20°C° 0.4 mm 4 m/s 750 mmHg 64%
13:00 +20°C° 0.4 mm 4 m/s 750 mmHg 68%
14:00 +20°C° 0.9 mm 4 m/s 750 mmHg 68%
15:00 +20°C° 0.9 mm 4 m/s 750 mmHg 68%
16:00 +20°C° 0.9 mm 3 m/s 750 mmHg 68%
17:00 +19°C° 0.4 mm 3 m/s 750 mmHg 72%
18:00 +18°C° 0.4 mm 2 m/s 750 mmHg 76%
19:00 +16°C° 0.4 mm 2 m/s 751 mmHg 80%
20:00 +16°C° 0 mm 1 m/s 751 mmHg 82%
21:00 +15°C° 0 mm 1 m/s 751 mmHg 83%
22:00 +15°C° 0 mm 1 m/s 752 mmHg 85%
23:00 +14°C° 0 mm 1 m/s 752 mmHg 85%

Depois de amanhã, 4 Agosto, Quarta-feira

Tempo Temperatura Precipitação Vento Pressão Humidade
00:00 +13°C° 0 mm 0 m/s 752 mmHg 86%
01:00 +12°C° 0 mm 0 m/s 752 mmHg 86%
02:00 +12°C° 0 mm 0 m/s 752 mmHg 87%
03:00 +12°C° 0 mm 0 m/s 752 mmHg 87%
04:00 +12°C° 0 mm 0 m/s 752 mmHg 88%
05:00 +14°C° 0 mm 1 m/s 752 mmHg 84%
06:00 +16°C° 0 mm 1 m/s 752 mmHg 80%
07:00 +18°C° 0 mm 1 m/s 752 mmHg 76%
08:00 +19°C° 0 mm 1 m/s 752 mmHg 71%
09:00 +20°C° 0 mm 1 m/s 752 mmHg 65%
10:00 +22°C° 0 mm 1 m/s 752 mmHg 60%
11:00 +21°C° 0.1 mm 1 m/s 752 mmHg 63%
12:00 +21°C° 0.1 mm 1 m/s 752 mmHg 66%
13:00 +20°C° 0.1 mm 1 m/s 752 mmHg 69%
14:00 +20°C° 0.1 mm 2 m/s 752 mmHg 65%
15:00 +21°C° 0.1 mm 2 m/s 752 mmHg 62%
16:00 +22°C° 0.1 mm 3 m/s 752 mmHg 58%
17:00 +20°C° 0 mm 3 m/s 752 mmHg 66%
18:00 +19°C° 0 mm 3 m/s 752 mmHg 73%
19:00 +18°C° 0 mm 3 m/s 752 mmHg 80%
20:00 +17°C° 0 mm 3 m/s 752 mmHg 85%
21:00 +16°C° 0 mm 3 m/s 752 mmHg 89%
22:00 +14°C° 0 mm 3 m/s 752 mmHg 94%
23:00 +14°C° 0 mm 3 m/s 752 mmHg 94%

5 Agosto, Quinta-feira

Tempo Temperatura Precipitação Vento Pressão Humidade
00:00 +14°C° 0 mm 3 m/s 751 mmHg 94%
01:00 +14°C° 0 mm 3 m/s 751 mmHg 94%
02:00 +14°C° 0.1 mm 3 m/s 751 mmHg 94%
03:00 +14°C° 0.1 mm 3 m/s 751 mmHg 95%
04:00 +13°C° 0.1 mm 3 m/s 750 mmHg 96%
05:00 +16°C° 0 mm 3 m/s 750 mmHg 91%
06:00 +17°C° 0 mm 3 m/s 750 mmHg 87%
07:00 +18°C° 0 mm 3 m/s 750 mmHg 83%
08:00 +20°C° 0 mm 3 m/s 750 mmHg 75%
09:00 +21°C° 0 mm 3 m/s 750 mmHg 68%
10:00 +23°C° 0 mm 4 m/s 750 mmHg 61%
11:00 +23°C° 0.1 mm 4 m/s 749 mmHg 61%
12:00 +23°C° 0.1 mm 4 m/s 749 mmHg 61%
13:00 +25°C° 0.1 mm 4 m/s 749 mmHg 61%
14:00 +23°C° 1 mm 4 m/s 748 mmHg 68%
15:00 +22°C° 1 mm 4 m/s 748 mmHg 74%
16:00 +21°C° 1 mm 4 m/s 748 mmHg 80%
17:00 +20°C° 1.1 mm 3 m/s 747 mmHg 84%
18:00 +19°C° 1.1 mm 2 m/s 747 mmHg 89%
19:00 +19°C° 1.1 mm 1 m/s 747 mmHg 93%
20:00 +19°C° 0.2 mm 1 m/s 747 mmHg 94%
21:00 +18°C° 0.2 mm 1 m/s 746 mmHg 95%
22:00 +17°C° 0.2 mm 2 m/s 746 mmHg 96%
23:00 +17°C° 0.2 mm 2 m/s 745 mmHg 97%

6 Agosto, Sexta-feira

Tempo Temperatura Precipitação Vento Pressão Humidade
00:00 +17°C° 0.2 mm 2 m/s 745 mmHg 97%
01:00 +17°C° 0.2 mm 2 m/s 744 mmHg 98%
02:00 +17°C° 1.6 mm 2 m/s 744 mmHg 98%
03:00 +17°C° 1.6 mm 2 m/s 743 mmHg 98%
04:00 +17°C° 1.6 mm 2 m/s 742 mmHg 99%
05:00 +17°C° 5.1 mm 3 m/s 742 mmHg 99%
06:00 +17°C° 5.1 mm 3 m/s 741 mmHg 98%
07:00 +17°C° 5.1 mm 4 m/s 740 mmHg 98%
08:00 +17°C° 3.8 mm 4 m/s 740 mmHg 98%
09:00 +16°C° 3.8 mm 5 m/s 740 mmHg 98%
10:00 +16°C° 3.8 mm 5 m/s 740 mmHg 97%
11:00 +16°C° 1.9 mm 5 m/s 740 mmHg 95%
12:00 +17°C° 1.9 mm 6 m/s 741 mmHg 92%
13:00 +17°C° 1.9 mm 6 m/s 741 mmHg 90%
14:00 +17°C° 0.4 mm 5 m/s 741 mmHg 87%
15:00 +19°C° 0.4 mm 5 m/s 742 mmHg 84%
16:00 +19°C° 0.4 mm 4 m/s 742 mmHg 81%
17:00 +19°C° 0.1 mm 4 m/s 742 mmHg 82%
18:00 +18°C° 0.1 mm 3 m/s 743 mmHg 83%
19:00 +18°C° 0.1 mm 3 m/s 743 mmHg 84%
20:00 +17°C° 0 mm 3 m/s 744 mmHg 85%
21:00 +16°C° 0 mm 3 m/s 744 mmHg 87%
22:00 +16°C° 0 mm 3 m/s 744 mmHg 88%
23:00 +14°C° 0 mm 3 m/s 745 mmHg 87%

7 Agosto, Sábado

Tempo Temperatura Precipitação Vento Pressão Humidade
00:00 +14°C° 0 mm 3 m/s 745 mmHg 87%
01:00 +14°C° 0 mm 3 m/s 746 mmHg 86%
02:00 +14°C° 0 mm 3 m/s 746 mmHg 87%
03:00 +14°C° 0 mm 3 m/s 746 mmHg 89%
04:00 +14°C° 0 mm 3 m/s 746 mmHg 90%
05:00 +15°C° 0 mm 4 m/s 747 mmHg 86%
06:00 +18°C° 0 mm 4 m/s 747 mmHg 83%
07:00 +19°C° 0 mm 4 m/s 747 mmHg 79%
08:00 +20°C° 0 mm 4 m/s 748 mmHg 73%
09:00 +22°C° 0 mm 5 m/s 748 mmHg 67%
10:00 +23°C° 0 mm 5 m/s 749 mmHg 61%
11:00 +25°C° 0 mm 4 m/s 749 mmHg 58%
12:00 +25°C° 0 mm 4 m/s 749 mmHg 55%
13:00 +26°C° 0 mm 4 m/s 749 mmHg 52%
14:00 +25°C° 0 mm 3 m/s 749 mmHg 58%
15:00 +25°C° 0 mm 2 m/s 750 mmHg 63%
16:00 +24°C° 0 mm 2 m/s 750 mmHg 69%
17:00 +23°C° 0 mm 2 m/s 750 mmHg 70%
18:00 +23°C° 0 mm 2 m/s 750 mmHg 71%
19:00 +21°C° 0 mm 2 m/s 750 mmHg 72%
20:00 +20°C° 0 mm 2 m/s 751 mmHg 72%
21:00 +20°C° 0 mm 2 m/s 751 mmHg 72%
22:00 +19°C° 0 mm 3 m/s 751 mmHg 72%
23:00 +19°C° 0 mm 3 m/s 751 mmHg 75%
Mostrar mais

Necessitamos do seu Consentimento

A Meteoprog e os seus Fornecedores de Serviços podem armazenar e aceder a dados pessoais como cookies, identificadores do dispositivo ou outras tecnologias semelhantes existentes no seu dispositivo e processar estes dados para personalizar conteúdos e anúncios, assim como funcionalidades nas redes sociais e análise de tráfego.

  • Armazenar e/ou aceder a informações no seu dispositivo

    Os cookies, identificadores do dispositivo ou outras informações podem ser armazenados ou acedidos no seu dispositivo, para os fins acima indicados.

  • Anúncios e conteúdos personalizados, medição de anúncios e conteúdos, dados sobre o público-alvo e desenvolvimento de produtos

    Os anúncios e os conteúdos podem ser personalizados com base num perfil. Podem ser adicionados dados adicionais para uma maior personalização dos anúncios e dos conteúdos. A eficácia dos anúncios e dos conteúdos pode ser medida. Podem ser obtidas informações sobre o público que visualizou os anúncios e os conteúdos. Estes dados podem ser usados para desenvolver ou melhorar sistemas, softwares ou a experiência do utilizador.

Ao clicar em "Eu concordo”, permitirá o uso de cookies, identificadores do dispositivo e web beacons mencionados ou outras tecnologias semelhantes. As configurações do navegador do seu dispositivo podem ser alteradas.

Para certos fins, podem ser invocados interesses legítimos ao invés de consentimento. Pode ler mais informação sobre este assunto na nossa Política de Privacidade e Cookies.